sat.trackr.live / text

‹ back to catalog

STARLINK-31850

NORAD 59903 · 2024-100U

PAYLOAD ACTIVE UNKNOWN

§ Identity

Operator
Country
US
Launch date
2024-05-28
Launch site
AFETR
Launch vehicle
Mass (kg)
RCS (m²)

Purposes: comms

External: N2YO · Heavens-Above · Gunter

§ Orbital elements

Epoch: 2026-09-21T22:30:34.734528Z

Period
94.27 min
Inclination
43.0033°
Eccentricity
0.0001443
Mean motion
15.27573680 rev/d
Perigee alt
482.1 km
Apogee alt
484.1 km
Semi-major
6,861.2 km
B*
5.2509e-6
RAAN
96.8054°
Arg perigee
266.6461°
Mean anomaly
93.4225°
Rev number
13,111

§ Raw data

STARLINK-318501 59903U 24100U   26264.93790202 -.00000118  00000+0  52509-5 0  99912 59903  43.0033  96.8054 0001443 266.6461  93.4225 15.27573680131112

JSON: /api/v1/satellites/59903 · /tle

For live sub-satellite position, see the globe view (requires WebGL).

§ Visibility from observer

Set your observer location to see the next 7 days of passes ≥ 10°. The values pass through the URL so the page stays shareable.

No JS? Fill the form by hand. The geolocation button needs JavaScript.